Maugansville, MD

12:09 PM EDT on September 26, 2016 (GMT -0400)
Hagerstown Regional-Henson

Weather History for KHGR - September, 2013

Change the Weather History Date:

Sunday, September 29, 2013

  Actual Average Record
Temperature  
Mean Temperature 59 °F 60 °F  
Max Temperature 71 °F 70 °F 77 °F (2015)
Min Temperature 47 °F 51 °F 37 °F (2000)
Degree Days  
Heating Degree Days 6 5  
Month to date heating degree days 77 61  
Since 1 July heating degree days 80 66  
Cooling Degree Days 0 1  
Month to date cooling degree days 104 90  
Year to date cooling degree days 1089 958  
Growing Degree Days 8 (Base 50)    
Moisture  
Dew Point 48 °F    
Average Humidity 72    
Maximum Humidity 100    
Minimum Humidity 44    
Precipitation  
Precipitation 0.00 in 0.14 in 1.40 in (2015)
Month to date precipitation 3.21 3.53  
Year to date precipitation 22.36 30.16  
Sea Level Pressure  
Sea Level Pressure 30.18 in    
Wind  
Wind Speed 3 mph (ENE)    
Max Wind Speed 9 mph    
Max Gust Speed 15 mph    
Visibility 9 miles    
Events      
T = Trace of Precipitation, MM = Missing Value Source: NWS Daily Summary

Daily Weather History Graph

Daily Weather History Graph

Search for Another Location

Airport or City:

Trip Planner

Search our weather history database for the weather conditions in past years. The results will help you decide how hot, cold, wet, or windy it might be!

Date:

Astronomy

Sep. 29, 2013 Rise Set
Actual Time 7:05 AM EDT 6:56 PM EDT
Civil Twilight 6:38 AM EDT 7:23 PM EDT
Nautical Twilight 6:07 AM EDT 7:54 PM EDT
Astronomical Twilight 5:35 AM EDT 8:25 PM EDT
Moon 1:45 AM EDT (9/29) 3:50 PM EDT (9/29)
Length of Visible Light 12h 44m
Length of Day
11h 50m
Waning Crescent, 27% of the Moon is Illuminated
Sep 29
Waning Crescent
Oct 4
New
Oct 11
First Quarter
Oct 18
Full
Oct 26
Last Quarter

Hourly Weather History & Observations

Time (EDT) Temp. Dew Point Humidity Pressure Visibility Wind Dir Wind Speed Gust Speed Precip Events Conditions
12:53 AM 51.1 °F 48.9 °F 92% 30.26 in 10.0 mi Calm Calm - N/A   Partly Cloudy
1:53 AM 54.0 °F 48.0 °F 80% 30.25 in 10.0 mi ENE 5.8 mph - N/A   Partly Cloudy
2:53 AM 48.9 °F 46.9 °F 93% 30.23 in 9.0 mi WNW 5.8 mph - N/A   Clear
3:53 AM 48.0 °F 46.9 °F 96% 30.23 in 7.0 mi NNW 3.5 mph - N/A   Clear
4:53 AM 50.0 °F 48.0 °F 93% 30.22 in 9.0 mi North 3.5 mph - N/A   Clear
5:53 AM 51.1 °F 46.9 °F 86% 30.22 in 10.0 mi Calm Calm - N/A   Clear
6:53 AM 48.0 °F 46.0 °F 93% 30.22 in 8.0 mi Calm Calm - N/A   Clear
7:53 AM 46.9 °F 46.0 °F 97% 30.23 in 4.0 mi WNW 3.5 mph - N/A   Clear
8:53 AM 52.0 °F 48.9 °F 89% 30.24 in 7.0 mi Calm Calm - N/A   Clear
9:53 AM 57.0 °F 51.1 °F 81% 30.24 in 10.0 mi Calm Calm - N/A   Scattered Clouds
10:53 AM 61.0 °F 54.0 °F 78% 30.23 in 10.0 mi Calm Calm - N/A   Clear
11:53 AM 64.0 °F 50.0 °F 60% 30.20 in 10.0 mi Calm Calm - N/A   Clear
12:53 PM 68.0 °F 48.9 °F 50% 30.19 in 10.0 mi Variable 3.5 mph - N/A   Scattered Clouds
1:53 PM 69.1 °F 48.0 °F 47% 30.15 in 10.0 mi South 5.8 mph - N/A   Scattered Clouds
2:53 PM 71.1 °F 48.9 °F 45% 30.13 in 10.0 mi Variable 4.6 mph - N/A   Scattered Clouds
3:53 PM 70.0 °F 46.9 °F 44% 30.11 in 10.0 mi Variable 3.5 mph - N/A   Partly Cloudy
4:53 PM 70.0 °F 46.0 °F 42% 30.10 in 10.0 mi SSE 4.6 mph - N/A   Clear
5:53 PM 70.0 °F 44.1 °F 39% 30.10 in 10.0 mi Calm Calm - N/A   Clear
6:53 PM 68.0 °F 45.0 °F 43% 30.11 in 10.0 mi Calm Calm - N/A   Partly Cloudy
7:53 PM 64.0 °F 46.9 °F 54% 30.10 in 10.0 mi ESE 3.5 mph - N/A   Clear
8:53 PM 62.1 °F 48.9 °F 62% 30.11 in 10.0 mi East 4.6 mph - N/A   Clear
9:53 PM 60.1 °F 50.0 °F 69% 30.11 in 10.0 mi East 4.6 mph - N/A   Clear
10:53 PM 57.9 °F 48.9 °F 72% 30.12 in 10.0 mi Calm Calm - N/A   Clear
11:53 PM 57.9 °F 50.0 °F 75% 30.11 in 10.0 mi East 3.5 mph - N/A   Clear